Location: Alpha Ridge Park
(39.3209°N, 76.9128°W)
Time: 03:44:54
(UTC-04:00)

BEESAT - Pass Details

Date: 04 July 2022
Orbit: 700 x 706 km, 98.6° (Epoch: 14 August)

Event Time Altitude Azimuth Distance (km) Brightness Sun altitude
Rises 21:44:09 0° 10° (N) 3,103 ? -11.1°
Reaches altitude 10° 21:46:26 10° 8° (N) 2,182 ? -11.5°
Maximum altitude 21:51:11 70° 286° (WNW) 752 ? -12.1°
Drops below altitude 10° 21:55:54 10° 203° (SSW) 2,169 ? -12.8°
Sets 21:58:09 0° 201° (SSW) 3,084 ? -13.1°
